Wind_Speed
55 56 56 55 55 57 59 59 60 60 60 60 61 61 58 56 56 55 53 52 50 48 46 44 43 41 41 40 38 37 36 34 34 33 33 32 33 33 33 32 32 32 32 32
54 56 54 54 54 55 57 58 59 59 59 60 61 61 60 58 57 56 56 54 52 51 49 48 46 45 43 42 41 40 39 37 37 36 36 36 36 36 35 35 34 35 35 35
52 53 52 53 55 55 56 57 57 58 58 59 61 62 60 58 58 57 57 56 54 52 51 50 50 49 47 45 44 43 42 41 40 40 40 39 39 38 37 37 37 37 38 38
48 51 52 53 54 55 55 55 56 57 57 58 60 62 60 58 58 58 57 56 55 52 52 52 52 52 51 49 48 46 45 45 44 43 43 42 42 41 40 40 41 41 41 41
44 47 50 52 52 53 54 54 55 55 57 59 60 63 62 59 58 57 56 56 55 54 54 54 54 54 54 53 51 50 49 48 48 47 46 45 45 44 44 44 44 44 45 45
40 41 45 48 50 51 51 52 53 54 56 60 59 62 64 60 58 57 57 56 56 56 55 55 55 55 55 54 54 53 53 52 51 51 50 49 48 47 47 47 48 48 48 48
37 38 40 44 47 50 51 50 51 53 56 60 58 61 64 60 58 57 56 57 57 57 57 56 56 56 56 55 55 55 55 55 54 54 54 53 52 51 50 50 51 52 52 52
34 35 36 40 44 46 48 49 50 52 55 57 57 60 61 59 57 56 56 57 58 57 58 58 57 57 57 57 57 57 57 57 56 56 56 56 55 55 54 54 54 54 55 55
30 32 34 37 39 43 45 47 48 49 52 55 58 59 58 58 58 57 57 56 57 57 57 58 59 59 59 59 59 59 59 59 59 58 58 58 58 58 57 57 56 56 56 57
26 29 32 35 37 40 43 43 44 46 50 52 57 58 57 57 57 57 57 56 57 57 57 58 59 60 60 59 59 60 60 60 61 61 61 61 61 61 60 60 59 58 58 59
24 26 29 33 35 37 39 42 45 46 48 49 53 57 55 55 55 55 55 54 54 55 56 57 57 59 60 61 60 60 60 61 62 62 62 62 62 62 63 62 61 60 60 60
24 26 26 29 32 35 38 40 42 44 46 47 51 54 52 53 53 54 54 53 53 54 54 55 56 57 58 59 60 60 60 61 61 62 62 63 63 63 64 64 64 63 63 62
26 26 26 25 29 33 36 38 40 42 45 47 49 52 49 50 51 51 52 52 52 53 54 54 55 57 57 58 59 61 61 61 61 62 63 64 64 64 65 65 65 65 65 64
25 27 27 28 28 30 34 36 38 41 43 46 48 48 47 47 49 50 50 51 52 53 54 55 55 55 56 57 59 60 60 61 62 63 63 64 64 65 65 66 67 67 67 67
25 26 28 29 30 31 31 34 38 41 42 44 44 45 45 46 47 49 50 51 52 54 54 55 55 56 56 57 58 59 60 61 62 64 64 65 65 66 66 67 67 68 68 68
26 27 28 29 31 33 34 34 35 38 40 42 44 44 43 47 49 49 50 52 53 53 53 54 56 57 58 58 58 59 60 61 62 63 64 65 66 66 67 68 68 68 68 69
27 30 31 32 33 36 35 33 35 36 39 40 42 41 43 46 47 48 49 51 52 53 54 55 56 57 58 59 60 61 62 62 63 64 64 66 67 68 67 68 68 68 69 69
28 30 32 34 36 39 37 35 36 38 38 39 41 42 45 47 48 48 49 51 52 53 54 55 56 57 58 59 60 61 61 62 63 63 65 66 67 68 68 68 68 68 68 68
28 30 33 35 37 38 36 37 38 41 41 40 42 43 45 47 50 50 50 52 53 54 54 55 56 57 58 58 60 60 60 61 62 62 63 65 67 67 67 67 67 67 67 66
28 30 32 34 35 36 34 35 38 42 42 39 42 44 46 47 50 49 50 52 53 54 55 56 57 57 58 58 59 59 59 59 60 60 60 62 63 65 65 65 65 65 65 65
28 30 32 34 36 37 35 36 38 41 41 41 42 43 45 47 49 49 50 50 51 52 53 54 55 56 56 56 57 58 58 59 59 59 59 59 60 61 63 63 64 64 64 64
30 32 33 35 38 37 34 36 39 40 41 42 43 43 44 45 46 47 48 48 49 50 50 51 51 52 53 54 54 55 56 56 57 57 57 57 57 58 59 60 61 62 62 63
31 32 33 36 37 36 36 37 38 40 41 41 42 43 44 44 45 45 46 47 48 49 50 50 50 50 51 51 52 53 54 54 54 55 56 56 57 57 58 59 60 60 61 61
32 33 35 37 36 36 38 40 40 41 42 42 43 43 44 45 46 46 46 46 47 48 49 50 50 51 51 51 52 52 53 54 54 55 55 55 55 56 56 57 58 58 59 59
33 35 37 38 36 38 38 40 42 42 43 44 44 45 45 46 47 47 47 47 48 48 49 50 50 50 50 51 51 52 52 53 53 54 54 54 54 54 55 55 54 54 55 56
32 35 38 38 38 40 39 40 41 42 43 44 45 45 46 47 48 48 48 48 47 48 48 48 49 49 49 49 49 50 50 50 51 52 52 53 53 53 52 53 53 54 55 55
Wind_Direction
234 234 235 235 235 236 236 236 236 236 235 236 237 236 236 235 236 237 237 238 238 239 240 241 242 243 244 245 247 248 250 251 252 253 254 255 255 256 257 259 260 260 261 263
233 234 234 234 234 234 235 235 236 236 236 237 237 237 236 236 236 237 237 238 239 239 241 242 243 244 245 246 247 248 249 251 252 253 254 255 256 257 258 260 261 261 262 263
232 233 233 233 233 234 235 235 235 236 237 238 238 238 237 237 237 237 238 239 240 240 241 243 245 246 246 247 248 249 250 251 252 253 254 255 257 258 260 260 261 262 263 264
232 231 231 232 233 234 235 236 237 237 238 238 238 239 236 237 236 237 239 240 241 242 242 243 245 246 248 249 249 250 250 251 253 254 254 256 257 258 260 260 261 262 263 265
232 231 232 232 233 235 236 236 238 239 239 240 240 242 237 236 236 237 238 240 242 242 243 244 245 246 247 248 250 250 251 251 252 254 255 256 257 258 259 260 261 262 263 265
230 231 232 232 232 234 235 237 238 239 240 240 239 242 241 237 237 238 239 241 241 243 244 244 245 246 247 248 250 251 252 251 252 253 255 256 257 259 260 261 262 263 264 265
228 229 230 230 231 231 233 234 237 238 239 241 240 242 242 240 239 239 240 240 241 243 244 245 246 246 246 248 249 250 252 252 252 252 254 256 258 259 261 262 263 264 264 265
230 229 230 230 231 231 232 234 236 239 241 242 242 242 242 243 242 241 242 242 243 244 245 246 247 248 249 249 249 250 251 252 253 253 254 256 258 259 260 262 263 263 264 265
234 233 232 232 232 232 232 234 237 241 243 244 244 244 244 244 245 245 245 245 245 246 247 247 248 249 250 250 250 251 252 252 253 254 255 256 257 259 260 262 263 263 264 264
239 237 234 233 232 233 234 235 236 239 242 246 247 246 246 246 247 248 248 248 248 248 248 249 250 250 250 251 252 252 253 254 255 255 256 256 257 258 260 261 262 263 264 264
241 242 238 236 235 235 235 235 236 239 243 246 248 248 247 248 249 250 250 251 250 250 250 251 251 252 252 252 253 253 254 254 255 256 258 258 259 259 260 261 262 262 263 264
242 244 243 242 239 238 238 238 238 240 243 246 249 249 248 250 251 252 252 251 250 250 250 250 251 252 253 253 253 253 254 255 255 256 257 258 259 259 260 261 261 262 263 264
245 245 246 244 243 241 240 238 239 241 244 246 248 250 248 250 250 251 253 253 252 252 251 251 251 252 252 253 254 254 254 255 255 256 257 258 258 258 259 260 261 262 262 263
249 246 245 247 248 247 244 242 241 242 245 248 249 250 247 249 250 250 251 252 252 252 253 252 253 252 252 253 254 254 255 255 255 255 256 257 258 259 259 260 261 262 262 263
250 249 248 247 248 250 248 244 245 246 249 251 251 251 250 251 251 250 251 251 252 252 253 253 253 252 251 252 254 254 255 255 256 257 257 257 258 258 259 260 261 261 262 263
253 253 252 250 250 252 251 248 249 250 253 255 255 253 252 252 253 253 253 253 253 253 252 253 253 253 253 253 253 254 255 255 256 257 258 259 259 259 259 260 261 261 262 263
259 258 256 255 254 255 254 253 253 255 256 257 258 256 254 253 254 255 255 255 254 253 253 254 255 255 255 255 255 255 255 256 256 257 258 259 260 260 260 261 261 262 263 263
263 263 262 262 259 258 257 256 256 257 258 259 260 258 256 256 255 255 257 258 257 256 256 256 257 258 258 259 259 259 259 259 259 259 259 259 260 261 261 262 262 262 263 263
267 265 266 267 265 262 259 259 260 261 260 261 261 260 259 258 257 257 258 259 259 259 259 260 260 261 260 260 260 261 260 260 260 261 261 261 261 261 262 262 263 263 263 263
271 269 268 269 269 266 265 264 263 264 263 262 262 261 260 259 260 259 260 261 261 262 262 262 262 262 262 262 262 261 261 261 262 262 262 262 262 262 262 263 263 263 263 264
273 272 271 271 272 271 271 269 268 267 268 266 265 264 263 262 263 262 261 261 261 262 263 263 263 263 262 262 262 262 261 261 262 263 263 263 262 262 262 262 263 264 264 264
275 273 272 273 272 274 275 272 271 271 269 268 267 266 265 265 264 264 264 264 263 263 263 263 264 264 264 264 264 264 264 263 263 263 263 263 263 262 262 262 263 264 264 265
276 277 276 275 275 276 274 273 273 271 270 269 268 268 268 267 266 266 266 265 265 265 265 265 265 266 266 266 266 266 265 264 263 263 263 263 263 263 263 263 263 264 264 265
279 278 277 277 277 276 274 273 273 272 271 269 269 270 270 269 268 268 269 268 267 266 266 266 266 265 266 266 267 268 267 265 263 263 263 263 262 262 262 263 264 265 265 265
282 280 279 278 279 277 275 274 274 272 272 272 271 270 271 271 271 270 270 270 268 267 267 267 267 266 266 267 268 268 268 266 265 264 263 262 262 263 263 263 263 263 263 264
285 282 280 279 279 278 277 276 275 274 273 273 272 272 272 272 272 272 272 271 270 269 268 267 267 266 266 267 268 268 268 267 266 265 264 263 262 263 263 264 264 264 265 265
Height
5658 5665 5672 5681 5687 5694 5699 5705 5711 5718 5723 5727 5733 5740 5748 5753 5757 5763 5768 5773 5778 5782 5786 5789 5792 5795 5798 5801 5804 5806 5809 5811 5812 5814 5815 5817 5818 5819 5820 5821 5822 5823 5823 5823
5647 5654 5664 5670 5675 5681 5686 5692 5699 5706 5711 5715 5721 5727 5735 5741 5747 5753 5758 5763 5768 5772 5776 5780 5783 5786 5789 5792 5795 5798 5800 5802 5804 5806 5807 5809 5810 5811 5813 5814 5814 5815 5815 5815
5637 5647 5653 5658 5663 5669 5675 5682 5689 5694 5699 5703 5708 5714 5722 5730 5736 5742 5748 5753 5757 5762 5766 5770 5773 5776 5779 5782 5786 5789 5791 5793 5795 5796 5798 5800 5801 5803 5804 5805 5806 5806 5806 5807
5626 5634 5640 5646 5653 5659 5665 5672 5677 5682 5686 5690 5696 5700 5712 5718 5725 5731 5737 5742 5747 5751 5755 5758 5762 5765 5769 5772 5775 5778 5781 5783 5785 5786 5788 5790 5792 5794 5796 5796 5796 5797 5797 5798
5617 5624 5630 5636 5644 5649 5656 5662 5666 5670 5673 5678 5683 5687 5698 5706 5713 5721 5727 5731 5736 5739 5743 5746 5750 5753 5757 5760 5763 5766 5769 5772 5774 5776 5778 5779 5781 5783 5785 5785 5786 5787 5787 5787
5610 5615 5620 5628 5634 5639 5645 5650 5654 5657 5660 5664 5673 5675 5683 5695 5704 5711 5716 5720 5723 5726 5730 5733 5737 5741 5744 5748 5751 5754 5757 5760 5762 5764 5766 5768 5770 5771 5773 5774 5775 5776 5776 5777
5601 5606 5611 5617 5623 5629 5634 5639 5643 5645 5646 5652 5663 5663 5673 5685 5693 5698 5703 5707 5710 5713 5716 5720 5724 5727 5731 5735 5738 5741 5743 5746 5749 5752 5753 5755 5757 5759 5761 5762 5763 5764 5764 5765
5594 5599 5604 5608 5614 5619 5624 5629 5633 5636 5639 5645 5649 5652 5665 5672 5679 5684 5689 5692 5696 5700 5703 5707 5710 5714 5717 5721 5724 5727 5730 5733 5735 5738 5740 5742 5744 5745 5747 5749 5749 5750 5751 5752
5588 5593 5597 5601 5605 5610 5614 5618 5624 5626 5628 5632 5635 5643 5654 5660 5664 5669 5674 5678 5682 5686 5689 5693 5697 5700 5703 5707 5710 5713 5716 5718 5721 5724 5726 5728 5729 5731 5733 5734 5735 5736 5736 5737
5581 5585 5590 5593 5597 5600 5606 5610 5613 5615 5617 5620 5625 5632 5642 5648 5651 5656 5661 5665 5668 5672 5676 5679 5682 5686 5689 5692 5695 5698 5701 5704 5707 5709 5711 5713 5715 5716 5717 5719 5720 5721 5722 5722
5575 5578 5582 5585 5589 5593 5597 5600 5603 5606 5608 5611 5614 5624 5631 5636 5639 5643 5646 5650 5654 5658 5661 5665 5668 5671 5674 5677 5680 5683 5686 5689 5691 5693 5695 5697 5699 5701 5702 5703 5705 5706 5706 5707
5570 5572 5575 5579 5582 5584 5588 5591 5594 5597 5599 5602 5604 5614 5621 5625 5627 5629 5632 5636 5640 5643 5646 5649 5652 5655 5658 5662 5665 5667 5670 5673 5675 5677 5679 5681 5683 5684 5686 5687 5688 5689 5690 5690
5564 5566 5569 5571 5575 5576 5579 5582 5585 5587 5589 5591 5593 5603 5611 5612 5614 5616 5618 5621 5624 5628 5631 5634 5636 5640 5643 5646 5649 5651 5654 5656 5659 5661 5663 5665 5666 5668 5669 5670 5671 5672 5673 5673
5558 5560 5563 5565 5566 5568 5570 5573 5575 5577 5579 5581 5585 5591 5598 5599 5601 5603 5605 5607 5609 5612 5615 5618 5621 5624 5627 5630 5633 5635 5638 5640 5642 5644 5646 5648 5650 5651 5652 5653 5654 5655 5655 5656
5551 5553 5555 5556 5558 5559 5561 5564 5566 5568 5570 5571 5575 5579 5586 5587 5587 5589 5591 5592 5594 5597 5600 5602 5605 5608 5611 5614 5617 5619 5621 5623 5625 5627 5629 5631 5632 5633 5634 5636 5636 5637 5637 5638
5545 5546 5547 5549 5550 5550 5552 5556 5558 5559 5561 5562 5564 5568 5574 5573 5574 5575 5577 5578 5581 5583 5586 5588 5590 5592 5595 5598 5600 5602 5604 5606 5608 5610 5611 5613 5614 5615 5617 5617 5618 5619 5619 5620
5538 5539 5540 5541 5542 5540 5543 5549 5550 5550 5551 5553 5553 5558 5560 5560 5562 5562 5563 5564 5566 5569 5571 5573 5575 5577 5579 5581 5583 5585 5587 5588 5590 5592 5593 5595 5596 5597 5598 5599 5600 5601 5601 5601
5532 5532 5531 5532 5533 5532 5540 5541 5540 5540 5541 5542 5543 5545 5547 5547 5547 5548 5550 5551 5552 5554 5556 5558 5559 5561 5563 5564 5566 5567 5569 5570 5572 5573 5575 5576 5577 5578 5579 5580 5581 5582 5582 5582
5525 5524 5523 5523 5522 5523 5530 5532 5530 5528 5529 5532 5531 5532 5533 5533 5532 5536 5538 5537 5538 5539 5541 5542 5544 5545 5546 5548 5548 5550 5551 5552 5553 5555 5556 5557 5558 5559 5560 5561 5562 5562 5563 5563
5517 5516 5515 5514 5512 5514 5521 5522 5518 5516 5517 5522 5520 5520 5520 5520 5520 5525 5525 5524 5524 5525 5526 5527 5528 5528 5530 5531 5531 5532 5534 5535 5536 5537 5538 5538 5539 5540 5541 5542 5543 5544 5544 5545
5509 5507 5506 5505 5502 5503 5511 5510 5506 5506 5508 5508 5507 5506 5506 5506 5507 5509 5509 5510 5509 5510 5510 5511 5511 5512 5513 5514 5515 5515 5517 5518 5519 5519 5520 5521 5521 5522 5523 5523 5524 5525 5526 5527
5500 5499 5498 5496 5494 5497 5499 5496 5495 5494 5494 5494 5493 5493 5492 5492 5493 5493 5493 5494 5494 5494 5495 5495 5496 5497 5497 5498 5499 5499 5500 5501 5502 5502 5503 5503 5504 5504 5505 5505 5506 5507 5507 5508
5491 5491 5488 5487 5487 5487 5486 5484 5482 5480 5480 5480 5479 5479 5479 5479 5479 5479 5479 5480 5480 5480 5480 5480 5481 5481 5482 5482 5482 5483 5483 5483 5484 5485 5485 5486 5487 5487 5488 5488 5489 5489 5490 5490
5481 5480 5477 5475 5476 5475 5473 5471 5469 5468 5467 5466 5466 5465 5465 5465 5465 5465 5465 5465 5465 5465 5465 5465 5466 5466 5467 5466 5466 5466 5466 5466 5467 5467 5468 5469 5469 5470 5470 5471 5471 5472 5472 5472
5471 5469 5466 5463 5464 5462 5461 5459 5457 5455 5454 5453 5453 5452 5451 5451 5450 5450 5450 5450 5450 5450 5450 5450 5450 5451 5451 5450 5450 5450 5449 5449 5450 5450 5451 5452 5453 5453 5454 5454 5454 5455 5455 5455
5461 5457 5453 5452 5452 5448 5447 5446 5444 5442 5441 5440 5440 5439 5438 5437 5436 5435 5435 5435 5434 5434 5434 5434 5434 5434 5434 5434 5434 5433 5433 5433 5434 5434 5435 5435 5436 5437 5437 5438 5438 5438 5439 5438